Flag for U.S.A. Weather past 2 weeks in Charleston, West Virginia, U.S.A.

Now
15 °F

Passing clouds.


Feels Like: 15 °F
Forecast: 12 / 38 °F
Wind: No wind

Location: Yeager Airport

Current Time: Feb 28, 2015 at 7:41:52 AM

Latest Report: Feb 28, 2015 at 6:54 AM


Visibility: 10 mi

Pressure: 30.73 "Hg

Humidity: 64%

Dew point: 5 °F

Location of CharlestonLocation

Historic Weather in Charleston — Graph

°F

Charleston temperature yesterday

Maximum temperature yesterday: 23 °F (at 4:54 PM)
Minimum temperature yesterday: 13 °F (at 7:54 AM)
Average temperature yesterday: 18 °F

Past Weeks' High & Low Weather Summary

 TemperatureHumidityPressure
High39 °F (Feb 21, 5:54 PM)100% (Feb 21, 10:54 PM)30.72 "Hg (Feb 21, 10:54 PM)
Low-9 °F (Feb 20, 7:54 AM)30% (Feb 20, 3:54 PM)29.64 "Hg (Feb 14, 1:54 PM)
Average20 °F63%30.18 "Hg
* Reported Feb 13 5:54 AM — Feb 28 5:54 AM, Charleston, Weather by CustomWeather, © 2015

Note: Actual official high and low records may vary slightly from our data, if they occured in-between our weather recording intervals... More about our weather records

Advertising

Charleston weather history for previous 24 hours

 ConditionsComfort  
Time TempWeatherWind HumidityBarometerVisibility
5:54 AM
Sat, Feb 28
15 °FPartly cloudy.3 mph64%30.72 "Hg10 mi
4:54 AM16 °FPassing clouds.3 mph62%30.71 "Hg10 mi
3:54 AM16 °FPartly cloudy.3 mph62%30.70 "Hg10 mi
2:54 AM16 °FPartly cloudy.5 mph59%30.70 "Hg10 mi
1:54 AM15 °FPassing clouds.3 mph67%30.70 "Hg10 mi
12:54 AM15 °FPassing clouds.5 mph67%30.69 "Hg10 mi
11:54 PM
Fri, Feb 27
15 °FClear.5 mph67%30.68 "Hg10 mi
10:54 PM15 °FClear.No wind67%30.69 "Hg10 mi
9:54 PM17 °FClear.No wind59%30.68 "Hg10 mi
8:54 PM18 °FClear.5 mph54%30.65 "Hg10 mi
7:54 PM19 °FPassing clouds.5 mph52%30.63 "Hg10 mi
6:54 PM20 °FPassing clouds.8 mph52%30.62 "Hg10 mi
5:54 PM21 °FScattered clouds.7 mph50%30.61 "Hg10 mi
4:54 PM23 °FCold.N/A46%30.60 "Hg10 mi
3:54 PM21 °FPartly sunny.5 mph50%30.59 "Hg10 mi
2:54 PM21 °FPartly sunny.7 mph50%30.58 "Hg10 mi
1:54 PM22 °FPartly sunny.10 mph52%30.57 "Hg10 mi
12:54 PM21 °FPartly sunny.6 mph52%30.58 "Hg10 mi
11:54 AM20 °FScattered clouds.3 mph55%30.57 "Hg10 mi
10:54 AM19 °FPartly sunny.3 mph57%30.56 "Hg10 mi
9:54 AM16 °FScattered clouds.5 mph65%30.55 "Hg10 mi
8:54 AM13 °FScattered clouds.5 mph67%30.52 "Hg10 mi
7:54 AM13 °FLight snow. Mostly cloudy.5 mph74%30.48 "Hg6 mi
Weather by CustomWeather, © 2015

See weather overviewHow to use our weather pages